Date String (YYYY-MM-DD hh:mm:ss) UTC,Instrument flags,absolute air pressure of the measurement (hPa),sample flow rate (lpm),inlet stack bypass flow (lpm),air temperature of the measurement (°C),ambient temperature measured by the external sensor (°C),aerosol sample conditioner tube jacket temperature (°C),OPC LED temperature (°C),internal box temperature (°C),relative humidity of the measurement (%),span deviation,mass concentration of particles derived from Lorenz-Mie calculation of OPC scattering (μg/m³),mass concentration of particles derived from Lorenz-Mie calculation of OPC scattering (μg/m³),mass concentration of particles derived from Lorenz-Mie calculation of OPC scattering (μg/m³)
DateTimeUTC,F1_M11,P_M11,Q1_M11,Q2_M11,T1_M11,T2_M11,T3_M11,T4_M11,T5_M11,U1_M11,ZSPAN_M11,X0_M11,X2_M11,X1_M11
2023-10-18 01:00:00,SystemResetWarning,0827.1,5.00,000.00,028.3,027.1,000.0,036.7,030.1,12.7,0000.0,0003.14,0001.99,0001.63
2023-10-18 01:01:00,SystemResetWarning,0827.1,4.98,000.00,028.3,026.2,000.0,036.6,030.1,12.8,0000.0,0003.17,0001.98,0001.62
2023-10-18 01:02:00,SystemResetWarning,0827.1,5.00,000.00,028.2,024.3,000.0,036.6,029.8,12.8,0000.0,0003.18,0001.95,0001.60
2023-10-18 01:03:00,SystemResetWarning,0827.1,5.02,000.00,028.1,023.8,000.0,036.5,029.6,12.9,0000.0,0003.09,0001.92,0001.58
2023-10-18 01:04:00,SystemResetWarning,0827.1,4.99,000.00,028.0,024.0,000.0,036.5,029.5,13.1,0000.0,0003.13,0001.92,0001.57
2023-10-18 01:05:00,SystemResetWarning,0827.1,5.01,000.00,027.9,024.4,000.0,036.5,029.5,13.1,0000.0,0003.27,0001.95,0001.57
2023-10-18 01:06:00,SystemResetWarning,0827.1,5.00,000.00,027.9,024.9,000.0,036.5,029.5,13.2,0000.0,0003.15,0001.92,0001.56
2023-10-18 01:07:00,SystemResetWarning,0827.1,4.99,000.00,027.9,025.3,000.0,036.5,029.6,13.2,0000.0,0003.09,0001.87,0001.53
2023-10-18 01:08:00,SystemResetWarning,0827.1,4.99,000.00,027.9,025.7,000.0,036.5,029.7,13.0,0000.0,0004.22,0001.85,0001.52
2023-10-18 01:09:00,SystemResetWarning,0827.1,5.00,000.00,027.9,026.0,000.0,036.5,029.7,13.0,0000.0,0005.26,0001.83,0001.51
2023-10-18 01:10:00,SystemResetWarning,0827.1,5.01,000.00,028.0,026.3,000.0,036.5,029.8,13.0,0000.0,0006.26,0001.83,0001.51
2023-10-18 01:11:00,SystemResetWarning,0827.1,5.00,000.00,028.0,026.6,000.0,036.5,029.9,13.0,0000.0,0006.35,0001.84,0001.50
2023-10-18 01:12:00,SystemResetWarning,0827.1,5.00,000.00,028.1,026.8,000.0,036.5,029.9,12.9,0000.0,0006.46,0001.86,0001.51
2023-10-18 01:13:00,SystemResetWarning,0827.1,5.00,000.00,028.1,026.9,000.0,036.5,030.0,12.9,0000.0,0006.43,0001.86,0001.51
2023-10-18 01:14:00,SystemResetWarning,0827.2,5.00,000.00,028.2,027.1,000.0,036.5,030.1,12.9,0000.0,0006.33,0001.84,0001.51
2023-10-18 01:15:00,SystemResetWarning,0827.1,4.99,000.00,028.2,027.2,000.0,036.6,030.1,12.7,0000.0,0006.40,0001.88,0001.51
2023-10-18 01:16:00,SystemResetWarning,0827.1,5.00,000.00,028.3,027.3,000.0,036.6,030.1,12.5,0000.0,0006.36,0001.89,0001.50
2023-10-18 01:17:00,SystemResetWarning,0827.2,4.99,000.00,028.3,026.2,000.0,036.6,030.1,12.5,0000.0,0006.36,0001.88,0001.49
2023-10-18 01:18:00,SystemResetWarning,0827.2,5.01,000.00,028.2,024.9,000.0,036.5,029.9,12.6,0000.0,0006.53,0001.93,0001.51
2023-10-18 01:19:00,SystemResetWarning,0827.1,5.01,000.00,028.2,024.8,000.0,036.5,029.8,12.7,0000.0,0006.05,0001.95,0001.51
2023-10-18 01:20:00,SystemResetWarning,0827.1,5.01,000.00,028.1,025.0,000.0,036.5,029.7,12.8,0000.0,0004.52,0001.96,0001.51
2023-10-18 01:21:00,SystemResetWarning,0827.2,5.00,000.00,028.0,025.4,000.0,036.5,029.7,12.9,0000.0,0003.55,0001.96,0001.51
2023-10-18 01:22:00,SystemResetWarning,0827.1,5.00,000.00,028.1,025.7,000.0,036.5,029.8,13.0,0000.0,0003.10,0001.99,0001.51
2023-10-18 01:23:00,SystemResetWarning,0827.1,5.00,000.00,028.1,026.0,000.0,036.5,029.8,12.9,0000.0,0003.01,0001.97,0001.51
2023-10-18 01:24:00,SystemResetWarning,0827.1,5.01,000.00,028.1,026.3,000.0,036.6,029.9,12.9,0000.0,0003.41,0001.98,0001.51
2023-10-18 01:25:00,SystemResetWarning,0827.1,5.00,000.00,028.1,026.6,000.0,036.6,029.9,12.8,0000.0,0003.44,0002.00,0001.52
2023-10-18 01:26:00,SystemResetWarning,0827.1,5.00,000.00,028.2,026.8,000.0,036.6,030.0,12.7,0000.0,0003.45,0002.00,0001.52
2023-10-18 01:27:00,SystemResetWarning,0827.1,5.00,000.00,028.2,026.9,000.0,036.6,030.1,12.5,0000.0,0003.39,0001.99,0001.52
2023-10-18 01:28:00,SystemResetWarning,0827.0,5.00,000.00,028.2,027.1,000.0,036.6,030.1,12.2,0000.0,0003.34,0001.96,0001.52
2023-10-18 01:29:00,SystemResetWarning,0827.1,4.99,000.00,028.3,027.1,000.0,036.7,030.1,12.0,0000.0,0003.95,0001.94,0001.51
2023-10-18 01:30:00,SystemResetWarning,0827.0,4.98,000.00,028.3,025.7,000.0,036.6,030.0,12.3,0000.0,0003.77,0001.88,0001.50
2023-10-18 01:31:00,SystemResetWarning,0827.0,5.01,000.00,028.2,024.7,000.0,036.5,029.9,12.4,0000.0,0003.86,0001.88,0001.50
2023-10-18 01:32:00,SystemResetWarning,0827.0,5.01,000.00,028.2,024.8,000.0,036.5,029.8,12.3,0000.0,0004.55,0001.89,0001.49
2023-10-18 01:33:00,SystemResetWarning,0827.0,5.00,000.00,028.1,025.1,000.0,036.5,029.7,12.4,0000.0,0004.63,0001.88,0001.49
2023-10-18 01:34:00,SystemResetWarning,0827.0,5.00,000.00,028.1,025.4,000.0,036.6,029.7,12.4,0000.0,0004.77,0001.91,0001.49
2023-10-18 01:35:00,SystemResetWarning,0827.0,5.00,000.00,028.1,025.8,000.0,036.6,029.8,12.4,0000.0,0004.29,0001.89,0001.48
2023-10-18 01:36:00,SystemResetWarning,0827.0,5.00,000.00,028.1,026.1,000.0,036.6,029.8,12.3,0000.0,0004.34,0001.91,0001.48
2023-10-18 01:37:00,SystemResetWarning,0827.0,5.00,000.00,028.1,026.3,000.0,036.6,029.9,12.3,0000.0,0004.25,0001.87,0001.47
2023-10-18 01:38:00,SystemResetWarning,0827.0,5.00,000.00,028.1,026.6,000.0,036.6,029.9,12.3,0000.0,0004.15,0001.82,0001.47
2023-10-18 01:39:00,SystemResetWarning,0827.0,5.00,000.00,028.2,026.8,000.0,036.6,030.0,12.4,0000.0,0004.32,0001.85,0001.48
2023-10-18 01:40:00,SystemResetWarning,0826.9,5.00,000.00,028.2,026.9,000.0,036.6,030.1,12.3,0000.0,0004.81,0001.85,0001.47
2023-10-18 01:41:00,SystemResetWarning,0826.9,5.00,000.00,028.2,027.1,000.0,036.7,030.1,12.3,0000.0,0004.80,0001.86,0001.47
2023-10-18 01:42:00,SystemResetWarning,0827.0,5.00,000.00,028.3,027.2,000.0,036.7,030.2,12.3,0000.0,0004.78,0001.89,0001.49
2023-10-18 01:43:00,SystemResetWarning,0827.0,5.00,000.00,028.3,027.1,000.0,036.7,030.2,12.3,0000.0,0004.87,0001.90,0001.50
2023-10-18 01:44:00,SystemResetWarning,0827.0,4.98,000.00,028.3,025.5,000.0,036.7,030.0,12.3,0000.0,0005.67,0001.90,0001.50
2023-10-18 01:45:00,SystemResetWarning,0827.0,5.01,000.00,028.2,023.9,000.0,036.6,029.7,12.4,0000.0,0005.97,0001.85,0001.50
2023-10-18 01:46:00,SystemResetWarning,0827.0,5.01,000.00,028.1,023.8,000.0,036.5,029.6,12.4,0000.0,0006.24,0001.89,0001.50
2023-10-18 01:47:00,SystemResetWarning,0827.0,5.00,000.00,028.0,024.1,000.0,036.5,029.4,12.3,0000.0,0007.02,0001.84,0001.50
2023-10-18 01:48:00,SystemResetWarning,0827.0,5.00,000.00,027.9,024.5,000.0,036.5,029.4,12.4,0000.0,0007.37,0001.85,0001.50
2023-10-18 01:49:00,SystemResetWarning,0827.0,5.00,000.00,027.9,025.0,000.0,036.5,029.5,12.3,0000.0,0007.50,0001.92,0001.51
2023-10-18 01:50:00,SystemResetWarning,0827.0,5.00,000.00,027.9,025.4,000.0,036.5,029.6,12.1,0000.0,0007.53,0001.92,0001.51
2023-10-18 01:51:00,SystemResetWarning,0827.0,5.00,000.00,027.9,025.7,000.0,036.5,029.6,11.9,0000.0,0006.57,0001.95,0001.52
2023-10-18 01:52:00,SystemResetWarning,0827.0,5.00,000.00,027.9,026.0,000.0,036.5,029.7,12.0,0000.0,0006.46,0001.95,0001.53
2023-10-18 01:53:00,SystemResetWarning,0827.0,5.00,000.00,027.9,026.3,000.0,036.5,029.7,12.0,0000.0,0006.41,0001.93,0001.54
2023-10-18 01:54:00,SystemResetWarning,0827.0,5.00,000.00,028.0,026.5,000.0,036.5,029.8,12.0,0000.0,0006.13,0001.90,0001.54
2023-10-18 01:55:00,SystemResetWarning,0827.0,5.00,000.00,028.0,026.7,000.0,036.5,029.9,12.0,0000.0,0004.74,0001.87,0001.54
2023-10-18 01:56:00,SystemResetWarning,0827.0,5.00,000.00,028.1,026.8,000.0,036.5,029.9,12.0,0000.0,0004.45,0001.88,0001.54
2023-10-18 01:57:00,SystemResetWarning,0827.0,5.00,000.00,028.1,026.9,000.0,036.5,030.0,11.9,0000.0,0004.23,0001.88,0001.55
2023-10-18 01:58:00,SystemResetWarning,0827.0,5.00,000.00,028.1,027.0,000.0,036.5,030.0,11.9,0000.0,0003.67,0001.89,0001.55
2023-10-18 01:59:00,SystemResetWarning,0827.1,5.00,000.00,028.2,027.1,000.0,036.6,030.1,11.8,0000.0,0003.08,0001.92,0001.55
